Location: *
(38.9800°N, 16.0500°E)
Time: 03:54:17
(UTC+00:00)

STARLINK-43 - Pass Details

Date: 07 April 2020
Orbit: 470 x 471 km, 53.0° (Epoch: 05 June)

Event Time Altitude Azimuth Distance (km) Brightness Sun altitude
Rises 03:44:50 0° 312° (NW) 2,527 6.7 -9.5°
Reaches altitude 10° 03:47:01 10° 315° (NW) 1,646 5.8 -9.1°
Maximum altitude 03:50:43 67° 39° (NE) 520 3.7 -8.4°
Drops below altitude 10° 03:54:23 10° 122° (ESE) 1,638 6.7 -7.7°
Sets 03:56:33 0° 125° (SE) 2,512 7.6 -7.3°
